Location: Unspecified
(44.4799°N, 0.0000°E)
Time: 05:33:37
(UTC+00:00)

SR - Visible Passes

Search period start: 04 April 2026 00:00
Search period end: 14 April 2026 00:00
Orbit: 571 x 850 km, 66.7° (Epoch: 29 March)

Date Brightness Start Highest point End Pass type
(mag) Time Alt. Az. Time Alt. Az. Time Alt. Az.
4 Apr ? 00:42:20 10° NNW 00:45:33 23° NNE 00:45:33 23° NNE visible
4 Apr ? 02:23:28 10° NW 02:24:32 16° NW 02:24:32 16° NW visible
4 Apr ? 23:48:00 10° N 23:51:06 15° NE 23:51:23 15° NE visible
5 Apr ? 01:28:25 10° NNW 01:30:22 23° NNW 01:30:22 23° NNW visible
5 Apr ? 19:25:04 10° NW 19:26:10 11° NNW 19:27:18 10° NNW visible
6 Apr ? 00:33:37 10° NNW 00:36:19 25° N 00:36:19 25° N visible
6 Apr ? 02:15:08 10° NW 02:15:18 11° NW 02:15:18 11° NW visible
6 Apr ? 23:39:05 10° N 23:42:20 19° NNE 23:42:20 19° NNE visible
7 Apr ? 01:19:54 10° NNW 01:21:20 19° NNW 01:21:20 19° NNW visible
7 Apr ? 22:45:03 10° N 22:47:11 12° NNE 22:48:23 11° NE visible
8 Apr ? 00:24:58 10° NNW 00:27:24 25° N 00:27:24 25° N visible
8 Apr ? 23:30:16 10° NNW 23:33:31 24° NNE 23:33:31 24° NNE visible
9 Apr ? 01:11:27 10° NW 01:12:31 16° NW 01:12:31 16° NW visible
9 Apr ? 22:35:53 10° N 22:39:06 16° NE 22:39:40 15° NE visible
10 Apr ? 00:16:22 10° NNW 00:18:40 26° NNW 00:18:40 26° NNW visible
10 Apr ? 23:21:32 10° NNW 23:24:50 29° NNE 23:24:50 29° NNE visible
11 Apr ? 01:03:05 10° NW 01:03:51 14° NW 01:03:51 14° NW visible
11 Apr ? 22:26:57 10° N 22:30:56 20° NE 22:31:02 20° NE visible
12 Apr ? 00:07:48 10° NNW 00:10:03 26° NNW 00:10:03 26° NNW visible
12 Apr ? 21:32:50 10° N 21:35:07 13° NNE 21:37:15 10° NE visible
12 Apr ? 23:12:50 10° NNW 23:16:16 34° N 23:16:16 34° N visible
13 Apr ? 00:54:50 10° NW 00:55:17 12° NW 00:55:17 12° NW visible
13 Apr ? 22:18:07 10° NNW 22:22:31 26° NE 22:22:31 26° NE visible
